Minneapolis Crystal, MN

1:21 AM CDT on April 24, 2018 (GMT -0500)
Crystal

Weather History for KMIC - August, 2014

Change the Weather History Date:

Tuesday, August 26, 2014

  Actual Average Record
Temperature  
Mean Temperature 66 °F -  
Max Temperature 75 °F 77 °F 96 °F (2013)
Min Temperature 57 °F 56 °F 37 °F (1997)
Cooling Degree Days 1    
Growing Degree Days 16 (Base 50)    
Moisture  
Dew Point 50 °F    
Average Humidity 58    
Maximum Humidity 75    
Minimum Humidity 42    
Precipitation  
Precipitation 0.00 in - - ()
Sea Level Pressure  
Sea Level Pressure 30.14 in    
Wind  
Wind Speed 6 mph (NW)    
Max Wind Speed 10 mph    
Max Gust Speed -    
Visibility 10 miles    
Events      
Averages and records for this station are not official NWS values.
T = Trace of Precipitation, MM = Missing Value Source: NWS Daily Summary

Daily Weather History Graph

Daily Weather History Graph

Search for Another Location

Airport or City:

Astronomy

Aug. 26, 2014 Rise Set
Actual Time 6:28 AM CDT 8:01 PM CDT
Civil Twilight 5:57 AM CDT 8:32 PM CDT
Nautical Twilight 5:19 AM CDT 9:09 PM CDT
Astronomical Twilight 4:39 AM CDT 9:49 PM CDT
Moon 7:34 AM CDT (8/26) 8:16 PM CDT (8/26)
Length of Visible Light 14h 34m
Length of Day
13h 33m
New Moon, 1% of the Moon is Illuminated
Aug 26
New Moon
Sep 2
First Quarter
Sep 8
Full
Sep 15
Last Quarter
Sep 24
New

Hourly Weather History & Observations

Time (CDT) Temp. Dew Point Humidity Pressure Visibility Wind Dir Wind Speed Gust Speed Precip Events Conditions
12:53 AM 63.0 °F 54.0 °F 72% 30.06 in 10.0 mi WNW 5.8 mph - N/A   Clear
1:53 AM 62.1 °F 54.0 °F 75% 30.06 in 10.0 mi NW 8.1 mph - N/A   Clear
2:53 AM 61.0 °F 53.1 °F 75% 30.06 in 10.0 mi WNW 5.8 mph - N/A   Clear
4:53 AM 57.9 °F 48.9 °F 72% 30.11 in 10.0 mi NW 9.2 mph - N/A   Clear
5:53 AM 57.0 °F 46.9 °F 69% 30.13 in 10.0 mi NW 9.2 mph - N/A   Clear
7:53 AM 57.0 °F 46.9 °F 69% 30.20 in 10.0 mi Calm Calm - N/A   Clear
8:53 AM 59.0 °F 46.0 °F 62% 30.22 in 10.0 mi WNW 5.8 mph - N/A   Clear
9:53 AM 62.1 °F 46.0 °F 56% 30.20 in 10.0 mi NW 8.1 mph - N/A   Clear
10:53 AM 64.0 °F 48.0 °F 56% 30.19 in 10.0 mi NNW 4.6 mph - N/A   Clear
11:53 AM 66.0 °F 48.0 °F 52% 30.17 in 10.0 mi NNW 10.4 mph - N/A   Clear
12:53 PM 68.0 °F 48.0 °F 49% 30.16 in 10.0 mi Variable 5.8 mph - N/A   Clear
1:53 PM 70.0 °F 48.9 °F 47% 30.14 in 10.0 mi ENE 4.6 mph - N/A   Clear
2:53 PM 73.0 °F 50.0 °F 44% 30.14 in 10.0 mi NW 5.8 mph - N/A   Clear
3:53 PM 73.9 °F 50.0 °F 43% 30.13 in 10.0 mi North 8.1 mph - N/A   Clear
4:53 PM 75.9 °F 51.1 °F 42% 30.13 in 10.0 mi Variable 3.5 mph - N/A   Clear
5:53 PM 72.0 °F 51.1 °F 48% 30.12 in 10.0 mi West 8.1 mph - N/A   Clear
6:53 PM 72.0 °F 51.1 °F 48% 30.13 in 10.0 mi NW 6.9 mph - N/A   Clear
7:53 PM 69.1 °F 53.1 °F 57% 30.13 in 10.0 mi NNW 4.6 mph - N/A   Clear
8:53 PM 68.0 °F 54.0 °F 61% 30.13 in 10.0 mi NNW 8.1 mph - N/A   Clear
9:53 PM 68.0 °F 53.1 °F 59% 30.14 in 10.0 mi NNE 4.6 mph - N/A   Mostly Cloudy
10:53 PM 66.9 °F 54.0 °F 63% 30.16 in 10.0 mi Calm Calm - N/A   Overcast